Вернуться в каталог

DELTA 1 DEB

АктивенSSO
NORAD 13569·DEBRIS·🇺🇸 United States

Запущен Mar 5, 1978 с Vandenberg Space Force Base

Loading…

Ближайшие Пролёты (ближайшие 24 часа)

TLE

СвежийSource: Space-Track

Эпоха: Sep 13, 2026, 20:21 UTC

1 13569U 78026FG  26256.84825692  .00001493  00000-0  66968-3 0  9997
2 13569  99.0797   4.1051 0094285 323.0543 163.4010 14.21757123295820

Отслеживайте DELTA 1 DEB в реальном времени с AllMySat

Download on the App Store